Time,TemperatureF,DewpointF,PressureIn,WindDirection,WindDirectionDegrees,WindSpeedMPH,WindSpeedGustMPH,Humidity,HourlyPrecipIn,Conditions,Clouds,dailyrainin,SoftwareType,DateUTC
2013-08-08 00:33:00,68.0,66.0,30.00,WNW,294,0.0,0.0,94,0.00,,,0.46,,2013-08-08 04:33:00,
2013-08-08 00:43:00,68.0,66.0,30.00,WNW,294,0.0,0.0,94,0.00,,,0.46,,2013-08-08 04:43:00,
2013-08-08 00:53:00,68.0,66.0,29.99,WNW,294,0.0,0.0,94,0.00,,,0.46,,2013-08-08 04:53:00,
2013-08-08 01:02:00,68.0,66.0,29.99,WNW,294,0.0,0.0,94,0.00,,,0.46,,2013-08-08 05:02:00,
2013-08-08 01:11:00,68.0,66.0,29.99,WNW,294,0.0,0.0,94,0.00,,,0.46,,2013-08-08 05:11:00,
2013-08-08 01:22:00,68.0,66.0,29.99,WNW,294,0.0,0.0,94,0.00,,,0.46,,2013-08-08 05:22:00,
2013-08-08 01:33:00,68.0,66.0,29.99,WNW,294,0.0,0.0,94,0.00,,,0.46,,2013-08-08 05:33:00,
2013-08-08 01:43:00,68.0,66.0,29.98,WNW,294,0.0,0.0,94,0.00,,,0.46,,2013-08-08 05:43:00,
2013-08-08 01:52:00,68.0,66.0,29.98,WNW,294,0.0,0.0,94,0.00,,,0.46,,2013-08-08 05:52:00,
2013-08-08 02:01:00,68.0,66.0,29.98,WNW,294,0.0,0.0,94,0.00,,,0.46,,2013-08-08 06:01:00,
2013-08-08 02:12:00,68.0,66.0,29.98,WNW,294,0.0,0.0,94,0.00,,,0.46,,2013-08-08 06:12:00,
2013-08-08 02:22:00,68.0,66.0,29.98,WNW,294,0.0,0.0,94,0.00,,,0.46,,2013-08-08 06:22:00,
2013-08-08 02:32:00,68.0,66.0,29.98,WNW,294,0.0,0.0,94,0.00,,,0.46,,2013-08-08 06:32:00,
2013-08-08 02:43:00,68.0,66.0,29.98,WNW,294,0.0,0.0,94,0.00,,,0.46,,2013-08-08 06:43:00,
2013-08-08 02:52:00,68.0,66.0,29.98,WNW,294,0.0,0.0,94,0.00,,,0.46,,2013-08-08 06:52:00,
2013-08-08 03:02:00,68.0,66.0,29.97,WNW,294,0.0,0.0,94,0.00,,,0.46,,2013-08-08 07:02:00,
2013-08-08 03:12:00,68.0,66.0,29.97,WNW,294,0.0,0.0,94,0.00,,,0.46,,2013-08-08 07:12:00,
2013-08-08 03:22:00,68.0,66.0,29.97,WNW,294,0.0,0.0,94,0.00,,,0.46,,2013-08-08 07:22:00,
2013-08-08 03:32:00,68.0,66.0,29.97,WNW,294,0.0,0.0,94,0.00,,,0.46,,2013-08-08 07:32:00,
2013-08-08 03:43:00,68.0,66.0,29.97,WNW,294,0.0,0.0,94,0.00,,,0.46,,2013-08-08 07:43:00,
2013-08-08 03:53:00,68.0,66.0,29.97,WNW,294,0.0,0.0,94,0.00,,,0.46,,2013-08-08 07:53:00,
2013-08-08 04:02:00,68.0,66.0,29.97,WNW,294,0.0,0.0,94,0.00,,,0.46,,2013-08-08 08:02:00,
2013-08-08 04:11:00,68.0,66.0,29.97,WNW,294,0.0,0.0,94,0.00,,,0.46,,2013-08-08 08:11:00,
2013-08-08 04:22:00,68.0,66.0,29.97,WNW,294,0.0,0.0,94,0.00,,,0.46,,2013-08-08 08:22:00,
2013-08-08 04:32:00,68.0,66.0,29.96,WNW,294,0.0,0.0,94,0.00,,,0.46,,2013-08-08 08:32:00,
2013-08-08 04:43:00,68.0,66.0,29.96,WNW,294,0.0,0.0,94,0.00,,,0.46,,2013-08-08 08:43:00,
2013-08-08 04:53:00,68.0,66.0,29.96,WNW,294,0.0,0.0,94,0.00,,,0.46,,2013-08-08 08:53:00,
2013-08-08 05:02:00,68.0,66.0,29.96,WNW,294,0.0,0.0,94,0.00,,,0.46,,2013-08-08 09:02:00,
2013-08-08 05:12:00,68.0,66.0,29.97,WNW,294,0.0,0.0,94,0.00,,,0.46,,2013-08-08 09:12:00,
2013-08-08 05:22:00,68.0,66.0,29.96,WNW,294,0.0,0.0,94,0.00,,,0.46,,2013-08-08 09:22:00,
2013-08-08 05:32:00,68.0,66.0,29.96,WNW,294,0.0,0.0,94,0.00,,,0.46,,2013-08-08 09:32:00,
2013-08-08 06:01:00,68.0,66.0,29.96,WNW,294,0.0,0.0,94,0.00,,,0.46,,2013-08-08 10:01:00,
2013-08-08 06:12:00,68.0,66.0,29.96,WNW,294,0.0,0.0,94,0.00,,,0.46,,2013-08-08 10:12:00,
2013-08-08 06:22:00,68.0,66.0,29.96,WNW,294,0.0,0.0,94,0.00,,,0.46,,2013-08-08 10:22:00,
2013-08-08 06:32:00,68.0,66.0,29.96,WNW,294,0.0,0.0,94,0.00,,,0.46,,2013-08-08 10:32:00,
2013-08-08 06:52:00,68.0,66.0,29.96,WNW,294,0.0,0.0,94,0.00,,,0.46,,2013-08-08 10:52:00,
2013-08-08 07:02:00,68.0,66.0,29.96,WNW,294,0.0,0.0,94,0.00,,,0.46,,2013-08-08 11:02:00,
2013-08-08 07:11:00,68.0,66.0,29.96,WNW,294,0.0,0.0,94,0.00,,,0.46,,2013-08-08 11:11:00,
2013-08-08 07:43:00,68.0,66.0,29.97,WNW,294,0.0,0.0,94,0.00,,,0.46,,2013-08-08 11:43:00,
2013-08-08 07:52:00,68.0,66.0,29.97,WNW,294,0.0,0.0,94,0.00,,,0.46,,2013-08-08 11:52:00,
2013-08-08 08:01:00,69.0,67.0,29.98,WNW,294,0.0,0.0,93,0.00,,,0.46,,2013-08-08 12:01:00,
2013-08-08 08:22:00,69.0,67.0,29.98,WNW,294,0.0,0.0,94,0.00,,,0.46,,2013-08-08 12:22:00,
2013-08-08 08:32:00,69.0,67.0,29.98,WNW,294,0.0,0.0,94,0.00,,,0.46,,2013-08-08 12:32:00,
2013-08-08 08:43:00,69.0,67.0,29.99,WNW,294,0.0,0.0,93,0.00,,,0.46,,2013-08-08 12:43:00,
2013-08-08 08:52:00,69.0,67.0,29.99,WNW,294,0.0,0.0,93,0.00,,,0.46,,2013-08-08 12:52:00,
2013-08-08 09:01:00,69.0,67.0,29.99,WNW,294,0.0,0.0,93,0.00,,,0.46,,2013-08-08 13:01:00,
2013-08-08 09:22:00,69.0,67.0,29.99,WNW,292,0.0,0.0,93,0.00,,,0.46,,2013-08-08 13:22:00,
2013-08-08 09:43:00,69.0,67.0,30.00,ENE,72,0.0,0.0,93,0.00,,,0.46,,2013-08-08 13:43:00,
2013-08-08 09:52:00,69.0,67.0,30.00,ENE,72,0.0,0.0,93,0.00,,,0.46,,2013-08-08 13:52:00,
2013-08-08 10:02:00,69.0,67.0,30.00,ENE,72,0.0,0.0,93,0.00,,,0.46,,2013-08-08 14:02:00,
2013-08-08 10:11:00,69.0,67.0,30.01,West,272,0.0,0.0,92,0.00,,,0.46,,2013-08-08 14:11:00,
2013-08-08 10:22:00,69.0,67.0,30.01,West,272,0.0,0.0,92,0.00,,,0.46,,2013-08-08 14:22:00,
2013-08-08 10:43:00,71.0,68.0,30.01,West,271,0.0,0.0,91,0.00,,,0.46,,2013-08-08 14:43:00,
2013-08-08 10:53:00,71.0,68.0,30.01,West,271,0.0,0.0,91,0.00,,,0.46,,2013-08-08 14:53:00,
2013-08-08 11:02:00,71.0,67.0,30.01,South,174,0.0,0.0,88,0.00,,,0.46,,2013-08-08 15:02:00,
2013-08-08 11:12:00,71.0,67.0,30.01,South,174,0.0,0.0,88,0.00,,,0.46,,2013-08-08 15:12:00,
2013-08-08 11:22:00,71.0,67.0,30.01,South,174,0.0,0.0,88,0.00,,,0.46,,2013-08-08 15:22:00,
2013-08-08 11:32:00,71.0,67.0,30.01,South,174,0.0,0.0,88,0.00,,,0.46,,2013-08-08 15:32:00,
2013-08-08 11:43:00,72.0,68.0,30.01,SSE,167,0.0,0.0,87,0.00,,,0.46,,2013-08-08 15:43:00,
2013-08-08 11:53:00,72.0,68.0,30.01,SSE,167,0.0,0.0,87,0.00,,,0.46,,2013-08-08 15:53:00,
2013-08-08 12:02:00,72.0,68.0,30.01,SSE,167,0.0,0.0,87,0.00,,,0.46,,2013-08-08 16:02:00,
2013-08-08 12:11:00,73.0,69.0,30.01,South,178,0.0,0.0,87,0.00,,,0.46,,2013-08-08 16:11:00,
2013-08-08 12:22:00,73.0,69.0,30.01,South,178,0.0,0.0,87,0.00,,,0.46,,2013-08-08 16:22:00,
2013-08-08 12:32:00,74.0,68.0,30.01,South,178,0.0,0.0,81,0.00,,,0.46,,2013-08-08 16:32:00,
2013-08-08 12:42:00,75.0,69.0,30.01,South,178,0.0,0.0,81,0.00,,,0.46,,2013-08-08 16:42:00,
2013-08-08 12:52:00,75.0,69.0,30.01,South,178,0.0,0.0,81,0.00,,,0.46,,2013-08-08 16:52:00,
2013-08-08 13:02:00,75.0,69.0,30.01,South,178,0.0,0.0,81,0.00,,,0.46,,2013-08-08 17:02:00,
2013-08-08 13:11:00,76.0,70.0,30.01,South,184,0.0,0.0,83,0.00,,,0.46,,2013-08-08 17:11:00,
2013-08-08 13:21:00,76.0,70.0,30.01,South,184,0.0,0.0,83,0.00,,,0.46,,2013-08-08 17:21:00,
2013-08-08 13:43:00,78.0,71.0,29.99,South,191,0.0,0.0,80,0.00,,,0.46,,2013-08-08 17:43:00,
2013-08-08 13:52:00,78.0,71.0,29.99,South,191,0.0,0.0,80,0.00,,,0.46,,2013-08-08 17:52:00,
2013-08-08 14:02:00,78.0,71.0,29.99,SSE,166,0.0,0.0,79,0.00,,,0.46,,2013-08-08 18:02:00,
2013-08-08 14:32:00,78.0,71.0,29.98,SSW,209,0.0,0.0,80,0.00,,,0.46,,2013-08-08 18:32:00,
2013-08-08 14:43:00,77.0,70.0,29.97,SSE,168,0.0,0.0,78,0.00,,,0.42,,2013-08-08 18:43:00,
2013-08-08 14:52:00,77.0,70.0,29.97,SSE,168,0.0,0.0,78,0.00,,,0.42,,2013-08-08 18:52:00,
2013-08-08 15:01:00,77.0,70.0,29.97,SSE,168,0.0,0.0,78,0.00,,,0.42,,2013-08-08 19:01:00,
2013-08-08 16:02:00,71.0,69.0,29.97,NNW,340,0.0,0.0,93,0.61,,,1.01,,2013-08-08 20:02:00,
2013-08-08 16:32:00,72.0,70.0,29.97,NNW,340,0.0,0.0,94,0.32,,,0.84,,2013-08-08 20:32:00,
2013-08-08 16:42:00,72.0,70.0,29.97,NNW,340,0.0,0.0,94,0.32,,,0.84,,2013-08-08 20:42:00,
2013-08-08 16:52:00,72.0,70.0,29.97,NNW,340,0.0,0.0,94,0.32,,,0.84,,2013-08-08 20:52:00,
2013-08-08 17:01:00,72.0,70.0,29.97,ESE,115,0.0,0.0,93,0.00,,,0.80,,2013-08-08 21:01:00,
2013-08-08 17:25:00,72.0,70.0,29.97,ESE,115,0.0,0.0,94,0.01,,,0.70,,2013-08-08 21:25:00,
2013-08-08 17:34:00,71.0,69.0,29.97,NE,39,0.0,0.0,93,0.01,,,0.66,,2013-08-08 21:34:00,
2013-08-08 17:45:00,72.0,70.0,29.97,NE,39,0.0,0.0,93,0.01,,,0.64,,2013-08-08 21:45:00,
2013-08-08 17:53:00,72.0,70.0,29.97,NE,39,0.0,0.0,93,0.01,,,0.64,,2013-08-08 21:53:00,
2013-08-08 18:05:00,72.0,70.0,29.97,NE,39,0.0,0.0,93,0.01,,,0.64,,2013-08-08 22:05:00,
2013-08-08 18:16:00,72.0,70.0,29.97,NE,39,0.0,0.0,93,0.01,,,0.64,,2013-08-08 22:16:00,
2013-08-08 18:36:00,72.0,70.0,29.98,NE,39,0.0,0.0,94,0.00,,,0.63,,2013-08-08 22:36:00,
2013-08-08 18:48:00,72.0,70.0,29.98,NE,39,0.0,0.0,94,0.00,,,0.63,,2013-08-08 22:48:00,
2013-08-08 18:56:00,72.0,70.0,29.98,NE,39,0.0,0.0,94,0.00,,,0.63,,2013-08-08 22:56:00,
2013-08-08 19:05:00,72.0,70.0,29.98,NE,39,0.0,0.0,94,0.00,,,0.63,,2013-08-08 23:05:00,
2013-08-08 19:37:00,71.0,69.0,29.98,SSE,155,0.0,0.0,93,0.00,,,0.63,,2013-08-08 23:37:00,
2013-08-08 19:47:00,71.0,69.0,29.98,SSE,155,0.0,0.0,93,0.00,,,0.63,,2013-08-08 23:47:00,
2013-08-08 19:54:00,71.0,69.0,29.98,SSE,155,0.0,0.0,93,0.00,,,0.63,,2013-08-08 23:54:00,
2013-08-08 20:05:00,71.0,69.0,29.98,SSE,155,0.0,0.0,93,0.00,,,0.63,,2013-08-09 00:05:00,
2013-08-08 20:15:00,71.0,69.0,29.98,SSE,155,0.0,0.0,93,0.00,,,0.63,,2013-08-09 00:15:00,
2013-08-08 20:24:00,71.0,69.0,29.98,SSE,155,0.0,0.0,93,0.00,,,0.63,,2013-08-09 00:24:00,
2013-08-08 20:35:00,71.0,69.0,29.98,SSE,155,0.0,0.0,93,0.00,,,0.63,,2013-08-09 00:35:00,
2013-08-08 20:46:00,71.0,69.0,30.00,SSE,155,0.0,0.0,93,0.00,,,0.63,,2013-08-09 00:46:00,
2013-08-08 20:54:00,71.0,69.0,30.00,North,355,0.0,0.0,94,0.00,,,0.63,,2013-08-09 00:54:00,
2013-08-08 21:03:00,70.0,68.0,30.00,North,355,0.0,0.0,93,0.00,,,0.63,,2013-08-09 01:03:00,
2013-08-08 21:25:00,70.0,68.0,30.00,North,355,0.0,0.0,94,0.00,,,0.63,,2013-08-09 01:25:00,
2013-08-08 21:46:00,70.0,68.0,30.00,North,355,0.0,0.0,93,0.00,,,0.63,,2013-08-09 01:46:00,
2013-08-08 22:04:00,70.0,68.0,29.99,North,355,0.0,0.0,94,0.00,,,0.63,,2013-08-09 02:04:00,
2013-08-08 22:25:00,70.0,68.0,29.99,North,355,0.0,0.0,93,0.00,,,0.63,,2013-08-09 02:25:00,
2013-08-08 22:47:00,69.0,67.0,29.99,North,355,0.0,0.0,93,0.00,,,0.63,,2013-08-09 02:47:00,
2013-08-08 22:55:00,69.0,67.0,29.99,North,355,0.0,0.0,93,0.00,,,0.63,,2013-08-09 02:55:00,
2013-08-08 23:15:00,69.0,67.0,29.98,North,355,0.0,0.0,93,0.00,,,0.63,,2013-08-09 03:15:00,
2013-08-08 23:24:00,69.0,67.0,29.98,North,355,0.0,0.0,93,0.00,,,0.63,,2013-08-09 03:24:00,
2013-08-08 23:47:00,69.0,67.0,29.99,North,355,0.0,0.0,94,0.00,,,0.63,,2013-08-09 03:47:00,